weather.gov     
National Weather Service

Regional Weather Roundup
NWS Homepage
This page is being discontinued on March 12, 2014.
The same data is available at this site. Please update your bookmarks.
Thank you, and we apologize for the inconvenience.
Please send an email to SR-SRH.Webmaster@noaa.gov with any concerns.


Current Version
Previous Version:    01  02  03  04  05  06  07  08  09  10  11  12  13  14  15  16  17  18  19  20  21  22  23  24  25  26  27  28  29  30  
   31  32  33  34  35  36  37  38  39  40  41  42  43  44  45  46  47  48  49  50  51  52  53  54  55  56  57  58  59  60  
[Printable]
172
ASUS43 KMKX 212121
RWRWI

WISCONSIN REGIONAL WEATHER ROUNDUP
NATIONAL WEATHER SERVICE MILWAUKEE/SULLIVAN WI
400 PM CDT TUE OCT 21 2014

NOTE: "FAIR" INDICATES FEW OR NO CLOUDS BELOW 12,000 FEET WITH NO
SIGNIFICANT WEATHER AND/OR OBSTRUCTIONS TO VISIBILITY.

WIZ001-002-006>008-014>016-023>028-212200-
NORTHWEST WISCONSIN

CITY           SKY/WX    TMP DP  RH WIND       PRES   REMARKS
SUPERIOR ARPT  SUNNY     47  37  69 NE14      30.21S
ASHLAND        SUNNY     47  37  68 N13       30.25S
HAYWARD        SUNNY     51  35  54 E8        30.20F
SIREN          SUNNY     56  35  46 SE7       30.17F
CUMBERLAND     SUNNY     52  34  50 E6        30.19S
RICE LAKE      SUNNY     54  35  50 SE10      30.20F
CHETEK         SUNNY     54  37  52 SE8       30.19F
LADYSMITH      SUNNY     55  37  50 SE5       30.21S
EAU CLAIRE     SUNNY     55  36  48 S9        30.19S
MENOMONIE      SUNNY     56  37  49 E7        30.19S
NEW RICHMOND   SUNNY     55  38  53 E6        30.18S
OSCEOLA        SUNNY     56  40  55 SE10      30.19S
$$

WIZ003>005-009-010-017-018-212200-
NORTH CENTRAL WISCONSIN

CITY           SKY/WX    TMP DP  RH WIND       PRES   REMARKS
MANITOWISH WTR SUNNY     46  35  64 E5        30.23S
ARBOR VITAE    SUNNY     47  36  65 SE5       30.23R
WOODRUFF       SUNNY     47  36  65 SE5       30.23R
RHINELANDER    SUNNY     48  34  58 E5        30.23S
EAGLE RIVER    SUNNY     47  31  54 CALM      30.23R
LAND O LAKES   SUNNY     49  31  49 SE5       30.23S
PHILLIPS       SUNNY     47  35  62 NE3       30.21F
TOMAHAWK       SUNNY     49  34  55 CALM      30.23S
MEDFORD        SUNNY     49  35  59 CALM      30.21S
MERRILL        SUNNY     51  35  53 S3        30.22S
$$

WIZ029-030-035-036-043>047-212200-
CENTRAL WISCONSIN

CITY           SKY/WX    TMP DP  RH WIND       PRES   REMARKS
WAUSAU         SUNNY     51  35  54 W3        30.20F
MOSINEE        NOT AVBL
MARSHFIELD     SUNNY     51  36  56 E8        30.21F
STEVENS POINT  SUNNY     50  34  54 CALM      30.22S
WAUPACA        SUNNY     55  34  46 E3        30.23S
WAUTOMA        CLOUDY    52  35  52 E6        30.23S
WISC RAPIDS    SUNNY     51  35  54 SE7       30.23F
CAMP DOUGLAS   MOSUNNY   52  37  58 E6        30.21F
$$

WIZ011>013-019>022-031-037>040-048>050-212200-
NORTHEAST WISCONSIN

CITY           SKY/WX    TMP DP  RH WIND       PRES   REMARKS
ANTIGO         SUNNY     50  34  55 N5        30.21S
SHAWANO        SUNNY     55  32  42 E3        30.22F
OCONTO         SUNNY     51  35  56 SE5       30.22S
STURGEON BAY   SUNNY     50  32  50 N8        30.23S
GREEN BAY      SUNNY     51  36  56 NE6       30.23S
MANITOWOC      SUNNY     49  39  68 VRB7      30.23R
APPLETON       MOSUNNY   52  30  43 VRB6      30.22S
CLINTONVILLE   SUNNY     52  30  43 NE3       30.22S
OSHKOSH        SUNNY     50  36  58 NE8       30.23S
$$

WIZ032>034-041-042-053>061-212200-
SOUTHWEST WISCONSIN

CITY           SKY/WX    TMP DP  RH WIND       PRES   REMARKS
LA CROSSE      SUNNY     58  37  45 SE7       30.18F
SPARTA         SUNNY     55  35  45 NE7       30.21R
VIROQUA        SUNNY     55  35  46 CALM      30.19S
BOSCOBEL       SUNNY     58  37  45 NE7       30.20S
PRAIRIE DU CHI SUNNY     57  35  43 NE6       30.18S
PLATTEVILLE    SUNNY     54  38  53 NE7       30.20S
$$

WIZ056-057-062-063-064-067-068-212200-
SOUTH CENTRAL WISCONSIN

CITY           SKY/WX    TMP DP  RH WIND       PRES   REMARKS
REEDSBURG      MOSUNNY   49  36  61 E3        30.22S
BARABOO/DELLS  MOSUNNY   47  35  61 NE5       30.22F
LONE ROCK      SUNNY     56  37  49 E8        30.21S
MINERAL POINT  SUNNY     54  36  50 E8        30.20S
MADISON        CLOUDY    48  37  65 E8        30.22F
MIDDLETON      CLOUDY    49  36  59 NE8       30.22S
WATERTOWN      CLOUDY    46  38  73 N5        30.22S
MONROE         MOSUNNY   48  37  66 NE9       30.20S
JANESVILLE     CLOUDY    54  36  50 NE5       30.21S
$$

WIZ051-052-058>065-066-070>072-212200-
SOUTHEAST WISCONSIN

CITY           SKY/WX    TMP DP  RH WIND       PRES   REMARKS
MILWAUKEE      PTSUNNY   49  38  65 NE10      30.22R
WAUKESHA       PTSUNNY   48  36  61 N6        30.22S
MILWAUKEE/TIMM MOSUNNY   48  36  61 NE8       30.22S
RACINE         CLOUDY    48  38  68 N12       30.22S
BURLINGTON     CLOUDY    47  36  64 N8        30.21S
KENOSHA        CLOUDY    49  39  68 N9        30.21S
FOND DU LAC    SUNNY     50  36  58 NE9       30.23S
SHEBOYGAN      SUNNY     50  38  63 NE12      30.22S
WEST BEND      PTSUNNY   50  34  53 N8        30.21S
JUNEAU         CLOUDY    46  36  68 N5        30.24S
$$

LSZ147-162-212200-
LAKE SUPERIOR

STATION/POSITION TIME  TEMP    WIND        PRES    WAVE
                       AIR SEA DIR/SP/G            HT/PER
                 (UTC) (F)     (DEG/KT/KT) (MB)    (FT/S)
W MID LAKE BUOY  2050   42 46   70/  8/  8 1025.7R   2/ 6
DEVILS ISLAND    2100   43      70/ 12/ 13 1025.3F
PORT WING        2040   49      70/  8/ 11 1023.7F
SAXON HARBOR     2000   46      30/  7/  8 1024.4S
$$

LMZ867-665-643>646-212200-
LAKE MICHIGAN

STATION/POSITION TIME  TEMP    WIND        PRES    WAVE
                       AIR SEA DIR/SP/G            HT/PER
                 (UTC) (F)     (DEG/KT/KT) (MB)    (FT/S)
CHAMBERS ISLAND  2000   49      20/ 11/ 12 1023.7S
N MID LAKE BUOY  2050   47 51   40/ 10/ 14 1023.7R   2/ 4
NORTHPORT PIER   2000   50     340/ 10/ 13 1023.4S
KEWAUNEE LAKESHO 2100   48      40/  7/ 10 1022.7R
SHEBOYGAN LAKESH 2100   47 50   30/ 16/ 17 1023.9S
PORT WASHINGTON  2040   49      50/ 13/ 17 1023.7R
ATWATER BUOY     2100   49      30/ 16/ 19 1023.9R
MILWAUKEE LAKESH 2100   48      30/ 16/ 18   N/A
S MID LAKE BUOY  2050   49 54  350/ 17/ 21 1022.1R   5/ 7
KENOSHA   LAKESH 2100   49     360/ 14/ 20 1022.7R
$$

TC  - TEMPERATURE IN CELSIUS
VSB - VISIBILITY IN STATUTE MILES
WCI - WIND CHILL INDEX
HX  - HEAT INDEX





U.S. Dept. of Commerce
NOAA National Weather Service
1325 East West Highway
Silver Spring, MD 20910
E-mail: w-nws.webmaster@noaa.gov
Page last modified: May 16, 2007
NATIONAL WEATHER SERVICE: for Safety, for Work, for Fun - FOR LIFE